• Join FlightAware (Why Join?)
  • Login
  • US Flag GB Flag 
12:47 EST


 

Airport Tracker/Info


-or-


 

Live Flight TrackerFlight Track Log ✈ DAL6234 ✈ 16-Apr-2013 ✈ KSYR - KLGA

Flight Track Log - Related Links

Times and Time Zones

All times are in EDT time to prevent confusion due to time zone crossing. See the DAL6234 flight status page for this flight to view local times or setup timezone preferences in your user account.

Time Position Orientation Groundspeed Altitude Reporting Facility
EDT Latitude Longitude Course Direction KTS MPH feet Rate Location/Type
18:00 43.1075 -76.1319 250° West 166 191 1,500  Level Boston Center
18:01 43.0958 -76.1767 250° West 187 215 3,500 2,411 Climbing Boston Center
18:02 43.0364 -76.1417 157° South 270 311 6,000 2,538 Climbing Boston Center
18:03 42.9750 -76.0444 131° Southeast 321 369 9,000 2,220 Climbing Boston Center
18:04 42.9133 -75.9472 131° Southeast 321 369 10,700 1,686 Climbing Boston Center
18:05 42.8539 -75.8419 128° Southeast 354 407 12,400 1,983 Climbing Boston Center
18:06 42.7911 -75.7111 123° Southeast 390 449 14,700 2,237 Climbing Boston Center
18:07 42.7261 -75.5747 123° Southeast 416 479 16,800 2,000 Climbing Boston Center
18:08 42.6650 -75.4417 122° Southeast 427 491 18,600 1,444 Climbing Boston Center
18:09 42.5842 -75.2686 122° Southeast 439 505 20,000 622 Climbing Boston Center
18:10 42.5147 -75.1189 122° Southeast 458 527 20,000  Level Boston Center
18:11 42.4550 -74.9981 124° Southeast 470 541 20,000  Level Boston Center
18:12 42.3672 -74.8147 123° Southeast 483 556 20,000  Level Boston Center
18:13 42.2953 -74.6631 123° Southeast 483 556 20,000 -198 Level Boston Center
18:14 42.2231 -74.5175 124° Southeast 483 556 19,600 -767 Descending Boston Center
18:15 42.1467 -74.3525 122° Southeast 478 550 18,300 -733 Descending Boston Center
18:16 42.0619 -74.1822 124° Southeast 465 535 18,000 -151 Descending Boston Center
18:17 41.9889 -74.0433 125° Southeast 465 535 18,000  Level Boston Center
18:18 41.8917 -73.9878 157° South 421 484 18,000 -639 Level Boston Center
18:19 41.7669 -73.9569 170° South 409 471 16,700 -1,678 Descending Boston Center
18:20 41.6756 -73.9353 170° South 395 455 14,700 -2,136 Descending Boston Center
18:21 41.5697 -73.9106 170° South 363 418 12,500 -2,087 Descending Boston Center
18:22 41.5167 -73.9000 172° South 328 377 11,500 -1,714 Descending New York TRACON
18:23 41.4333 -73.8833 171° South 311 358 9,900 -1,600 Descending New York TRACON
18:24 41.3667 -73.8167 143° Southeast 304 350 8,300 -950 Descending New York TRACON
18:25 41.3000 -73.7500 143° Southeast 293 337 8,000 -150 Descending New York TRACON
18:26 41.2333 -73.7000 151° Southeast 298 343 8,000 -105 Level New York TRACON
18:27 41.1667 -73.6333 143° Southeast 306 352 7,800 -895 Descending New York TRACON
18:28 41.1000 -73.6167 169° South 273 314 6,300 -1,381 Descending New York TRACON
18:29 41.0333 -73.6667 210° Southwest 204 235 4,900 -1,048 Descending New York TRACON
18:30 41.0000 -73.6833 201° Southwest 137 158 4,100 -450 Descending New York TRACON
18:31 40.9667 -73.7167 217° Southwest 137 158 4,000 -50 Descending New York TRACON
18:32 40.9333 -73.6833 143° Southeast 171 197 4,000 -600 Level New York TRACON
18:33 40.9167 -73.7167 237° Southwest 153 176 2,800 -1,000 Descending New York TRACON
18:34 40.9000 -73.7667 246° West 139 160 2,000 -400 Descending New York TRACON
18:35 40.8667 -73.8000 217° Southwest 139 160 2,000 -300 Level New York TRACON
18:36 40.8500 -73.8167 217° Southwest 136 157 1,400 -600 Descending New York TRACON
18:37 40.8167 -73.8500 217° Southwest 103 119 800 -600 Descending New York TRACON
18:38 40.7833 -73.8667 201° Southwest 108 124 200 -600 Descending New York TRACON
18:40 40.7772 -73.8726 180° South  Level Estimated
18:47 40.7772 -73.8726 180° South  Level Estimated